Change the Weather History Date:

Friday, November 9, 2012

  Actual Average Record
Temperature  
Mean Temperature 69 °F -  
Max Temperature 78 °F 84 °F 89 °F (2000)
Min Temperature 60 °F 69 °F 57 °F (2007)
Cooling Degree Days 4    
Growing Degree Days 19 (Base 50)    
Moisture  
Dew Point 60 °F    
Average Humidity 72    
Maximum Humidity 88    
Minimum Humidity 57    
Precipitation  
Precipitation 0.00 in - - ()
Sea Level Pressure  
Sea Level Pressure 30.07 in    
Wind  
Wind Speed 6 mph ()    
Max Wind Speed 12 mph    
Max Gust Speed -    
Visibility 6.9 miles    
Events      
Averages and records for this station are not official NWS values.
T = Trace of Precipitation, MM = Missing Value Source: Averaged Metar Reports

Daily Weather History Graph

Daily Weather History Graph

Search for Another Location

Airport or City:

Trip Planner

Search our weather history database for the weather conditions in past years. The results will help you decide how hot, cold, wet, or windy it might be!

Date:

Astronomy

Nov. 09, 2012 Rise Set
Actual Time 5:54 AM CST 5:07 PM CST
Civil Twilight 5:31 AM CST 5:30 PM CST
Nautical Twilight 5:04 AM CST 5:57 PM CST
Astronomical Twilight 4:38 AM CST 6:23 PM CST
Moon 1:27 AM CST (11/9) 1:51 PM CST (11/9)
Length of Visible Light 11h 59m
Length of Day
11h 13m
Waning Crescent, 23% of the Moon is Illuminated
Nov 9
Waning Crescent
Nov 13
New
Nov 20
First Quarter
Nov 28
Full
Dec 6
Last Quarter

Hourly Weather History & Observations

Time (CST) Temp. Dew Point Humidity Pressure Visibility Wind Dir Wind Speed Gust Speed Precip Events Conditions
12:45 AM 62.6 °F 57.2 °F 82% 30.06 in 7.0 mi WNW 5.8 mph - N/A   Partly Cloudy
1:44 AM 60.8 °F 57.2 °F 88% 30.05 in 7.0 mi NW 5.8 mph - N/A   Scattered Clouds
2:43 AM 60.8 °F 55.4 °F 82% 30.03 in 7.0 mi NW 5.8 mph - N/A   Scattered Clouds
3:46 AM 60.8 °F 55.4 °F 82% 30.06 in 7.0 mi NW 5.8 mph - N/A   Scattered Clouds
4:45 AM 60.8 °F 57.2 °F 88% 30.06 in 7.0 mi NW 5.8 mph - N/A   Scattered Clouds
5:44 AM 62.6 °F 57.2 °F 82% 30.05 in 7.0 mi NW 5.8 mph - N/A   Scattered Clouds
6:43 AM 68.0 °F 60.8 °F 78% 30.09 in 7.0 mi NW 5.8 mph - N/A   Scattered Clouds
7:43 AM 68.0 °F 62.6 °F 83% 30.10 in 7.0 mi WNW 3.5 mph - N/A   Mostly Cloudy
8:46 AM 71.6 °F 64.4 °F 78% 30.11 in 7.0 mi NW 6.9 mph - N/A   Mostly Cloudy
9:43 AM 71.6 °F 68.0 °F 88% 30.13 in 6.0 mi NW 6.9 mph - N/A   Mostly Cloudy
10:46 AM 78.8 °F 66.2 °F 65% 30.11 in 6.0 mi ENE 9.2 mph - N/A   Mostly Cloudy
11:43 AM 78.8 °F 62.6 °F 57% 30.09 in 7.0 mi ENE 8.1 mph - N/A   Mostly Cloudy
12:48 PM 77.0 °F 62.6 °F 61% 30.06 in 7.0 mi East 10.4 mph - N/A   Mostly Cloudy
1:54 PM 78.8 °F 62.6 °F 57% 30.04 in 7.0 mi East 10.4 mph - N/A   Mostly Cloudy
2:47 PM 77.0 °F 62.6 °F 61% 30.03 in 7.0 mi ENE 9.2 mph - N/A   Mostly Cloudy
3:45 PM 77.0 °F 62.6 °F 61% 30.03 in 7.0 mi ENE 11.5 mph - N/A   Mostly Cloudy
4:45 PM 75.2 °F 62.6 °F 65% 30.04 in 7.0 mi ENE 5.8 mph - N/A   Scattered Clouds
5:45 PM 73.4 °F 62.6 °F 69% 30.04 in 7.0 mi NE 6.9 mph - N/A   Scattered Clouds
6:47 PM 73.4 °F 60.8 °F 65% 30.07 in 7.0 mi NE 5.8 mph - N/A   Scattered Clouds
7:47 PM 73.4 °F 59.0 °F 61% 30.09 in 7.0 mi ENE 5.8 mph - N/A   Mostly Cloudy
8:49 PM 71.6 °F 55.4 °F 57% 30.09 in 7.0 mi NE 5.8 mph - N/A   Scattered Clouds
9:49 PM 69.8 °F 55.4 °F 60% 30.10 in 7.0 mi NE 3.5 mph - N/A   Clear
10:52 PM 64.4 °F 59.0 °F 83% 30.09 in 7.0 mi North 2.3 mph - N/A   Scattered Clouds
11:48 PM 64.4 °F 59.0 °F 83% 30.09 in 7.0 mi NNW 3.5 mph - N/A   Mostly Cloudy